Tracking 26894 objects as of 2-Feb-2023
HD Live streaming from Space Station
objects crossing your sky now

NOAA 17 DEB

Track NOAA 17 DEB now!
10-day predictions


NORAD ID: 48764
Int'l Code: 2002-032DA
Perigee: 598.8 km
Apogee: 725.7 km
Inclination: 98.4 °
Period: 97.8 minutes
Semi major axis: 7033 km
RCS: Unknown
Launch date: June 24, 2002
Source: United States (US)
Launch site: AIR FORCE WESTERN TEST RANGE (AFWTR)

Note: This is SATELLITE DEBRIS
Your satellite tracking list
Your tracking list is empty




NASA's NSSDC Master Catalog

Two Line Element Set (TLE):
1 48764U 02032CZ  23030.16435644  .00042465  00000-0  63388-2 0  9998
2 48764  98.4335 357.0615 0090220  51.3210 309.6023 14.71865983 95486
Source of the keplerian elements: AFSPC